Location: Ajisawe
(8.4333°N, 4.3833°E)
Time: 02:02:50
(UTC+00:00)

Courier 1B Rocket - Pass Details

Date: 23 April 2021
Orbit: 920 x 1202 km, 28.3° (Epoch: 13 May)

Event Time Altitude Azimuth Distance (km) Brightness Sun altitude
Rises 00:24:34 0° 302° (WNW) 3,942 - -66.4°
Reaches altitude 10° 00:27:19 10° 305° (NW) 3,019 - -66.1°
Maximum altitude 00:34:50 69° 28° (NNE) 1,250 - -65.1°
Drops below altitude 10° 00:42:38 10° 110° (ESE) 3,127 - -64.0°
Sets 00:45:31 0° 113° (ESE) 4,091 - -63.6°
